Hourly Data Report for July 26, 2021

CAMBRIDGE BAY A
NUNAVUT
Current Station Operator: NAVCAN

69°06'29.000" N
105°08'14.000" W
31.10 m
2400601
71925
YCB

Download Data

Hourly Data (July 2021)
Hourly Data Report for July 26, 2021
TIME
LST
Temp Definition
°C
Dew Point Definition
°C
Rel Hum Definition
%
Precip. Amount Definition
mm

Wind Dir Definition
10's deg

Wind Spd Definition
km/h
Visibility Definition
km
Stn Press Definition
kPa
Hmdx Definition


Wind Chill Definition


Weather Definition


00:00 4.8 2.5 85   32 22 24.1 99.92     LegendNANA
01:00 4.6 2.6 87   32 24 24.1 99.93     LegendNANA
02:00 4.5 2.4 86   32 24 24.1 99.93     Mostly Cloudy
03:00 4.6 2.2 85   33 25 24.1 99.92     LegendNANA
04:00 4.6 2.2 84   33 24 24.1 99.91     LegendNANA
05:00 4.7 2.0 82   33 28 24.1 99.91     Mostly Cloudy
06:00 4.7 1.8 81   33 28 24.1 99.90     LegendNANA
07:00 5.0 1.5 78   32 36 24.1 99.88     LegendNANA
08:00 5.7 1.6 75   32 29 24.1 99.85     Mostly Cloudy
09:00 6.0 1.4 72   31 31 24.1 99.85     LegendNANA
10:00 7.0 1.2 66   31 30 24.1 99.83     LegendNANA
11:00 6.8 1.3 68   32 33 24.1 99.83     Rain Showers
12:00 6.7 1.1 68   33 35 24.1 99.82     Rain Showers
13:00 7.5 0.9 63   34 28 24.1 99.84     LegendNANA
14:00 7.6 0.2 59   34 32 24.1 99.85     Mostly Cloudy
15:00 8.0 0.4 59   34 30 24.1 99.86     LegendNANA
16:00 8.5 0.9 59   33 27 24.1 99.85     LegendNANA
17:00 8.1 1.1 61   33 33 24.1 99.86     Mostly Cloudy
18:00 8.1 1.2 61   33 22 24.1 99.85     LegendNANA
19:00 7.9 1.2 62   32 22 24.1 99.85     LegendNANA
20:00 7.1 2.0 70   30 17 24.1 99.84     Mostly Cloudy
21:00 4.2 1.6 83   26 14 24.1 99.81     LegendNANA
22:00 4.1 1.8 85   27 18 24.1 99.80     Rain
23:00 5.6 3.6 87   31 17 19.3 99.79     Rain

Notes on Data Quality.

Legend

  • E = Estimated
  • M = Missing
  • NA = Not Available*
  • [empty] = Indicates an unobserved value
Date modified: